BEIDOU-3 M5

Last updated on Wed May 15 2019 03:07:46 GMT+0000 (Coordinated Universal Time)

1 43207U 18018A 19133.87293391 .00000094 00000-0 00000+0 0 9995 2 43207 55.0588 149.8119 0008896 313.7825 46.1918 1.86231852 8487
UTC large
Height (km)
Speed (km/s)
/
Latitude / Longitude
Inclination (degrees)
Orbital Period (minutes)
Azimuth
Elevation
Range (km)
Doppler Factor

Next 0 passes for location: London (51.5072 / 0.1276)

Sorry there are no passes over London.